Location: Smoky Mountain Stargaze
(35.4252°N, 83.3329°W)
Time: 10:24:04
(UTC-05:00)

Amateur Radio Satellites - All Passes

Search period start: 09 December 2016 09:54
Search period end: 10 December 2016 09:54
Location: Smoky Mountain Stargaze, 35.4252°N, 83.3329°W

Satellite Date Start Highest point End Downlink Frequencies (MHz)
Time Altitude Azimuth
ZACube-1 09 Dec 09:57:15 10:01:16 47° 286° (WNW) 10:05:14 437.345
CUSAT 1 09 Dec 09:57:26 09:59:59 24° 281° (W) 10:02:16 437.405
FUNcube-1 09 Dec 10:02:52 10:06:50 44° 286° (WNW) 10:10:45 145.935
PCSat 09 Dec 10:08:53 10:13:25 28° 108° (ESE) 10:17:58 145.827
DELFI C3 09 Dec 10:11:04 10:15:03 72° 100° (E) 10:19:02 145.870
TIGRISAT 09 Dec 10:19:23 10:24:02 64° 259° (W) 10:28:39 435.000
GONETS M04 09 Dec 10:21:39 10:26:29 16° 65° (ENE) 10:31:18
ANTELSAT 09 Dec 10:21:53 10:26:29 56° 259° (W) 10:31:03 437.575/2403.000
POPSAT HIP 1 09 Dec 10:27:05 10:29:34 15° 67° (ENE) 10:32:04 437.405
Oscar 11 09 Dec 10:29:14 10:32:42 24° 290° (WNW) 10:36:09 145.826/435.025
JAS-2 09 Dec 10:32:20 10:38:12 39° 71° (ENE) 10:43:28 435.910
RS-15 09 Dec 10:40:46 10:48:50 20° 335° (NNW) 10:57:05 29.354- 29.394
HO-68 09 Dec 10:48:21 10:48:40 10° 307° (NW) 10:48:59 435.675
HUMSAT D 09 Dec 10:52:53 10:56:57 70° 283° (WNW) 11:00:59 437.325/437.525
AO-85 09 Dec 10:59:05 11:03:00 72° 241° (WSW) 11:06:50 145.980
NANOSAT C BR1 09 Dec 11:17:06 11:21:16 56° 74° (ENE) 11:25:27 145.865
Cosmos 2499 09 Dec 11:17:58 11:25:54 42° 76° (ENE) 11:33:12 435.465 / 435.565
DANDE 09 Dec 11:19:07 11:21:39 15° 280° (W) 11:23:52 436.750
AISAT 09 Dec 11:23:12 11:24:24 11° 92° (E) 11:25:37 437.250
QB50P2 09 Dec 11:26:28 11:30:45 86° 81° (E) 11:35:04 145.880/145.840
POLYITAN 1 09 Dec 11:26:54 11:31:11 81° 77° (ENE) 11:35:29 437.675
ESTCUBE 1 09 Dec 11:29:41 11:33:49 35° 98° (E) 11:37:57 437.505/2401.250
UNISAT 6 09 Dec 11:31:42 11:32:13 10° 269° (W) 11:32:44 437.425
JUGNU 09 Dec 11:34:14 11:38:03 17° 178° (S) 11:41:52 437.505
DUCHIFAT 1 09 Dec 11:37:15 11:41:30 90° 205° (SSW) 11:45:47 145.980
CUBEBUG 1 09 Dec 11:37:15 11:40:55 25° 96° (E) 11:44:32 437.445
QB50P1 09 Dec 11:38:44 11:43:00 73° 258° (WSW) 11:47:17 145.935-145.965
Oscar 19 09 Dec 11:48:21 11:49:41 11° 62° (ENE) 11:51:02 437.125/150
50 SAT 09 Dec 11:49:23 11:51:28 15° 95° (E) 11:53:33 437.505
PCSat 09 Dec 11:51:44 11:56:38 34° 303° (WNW) 12:01:35 145.827
VELOX 1 09 Dec 11:57:32 12:01:20 27° 97° (E) 12:05:07 145.980
DX 1 09 Dec 11:59:43 12:02:03 14° 93° (E) 12:04:22 434.975-435.025
POPSAT HIP 1 09 Dec 12:00:57 12:04:59 39° 262° (W) 12:09:01 437.405
SPROUT 09 Dec 12:03:32 12:06:44 20° 95° (E) 12:09:54 437.525
Gurwin Techsat 1B 09 Dec 12:14:56 12:15:27 10° 61° (ENE) 12:15:58 435.225
GONETS M04 09 Dec 12:15:43 12:24:29 89° 82° (E) 12:33:15
JAS-2 09 Dec 12:17:57 12:23:15 27° 263° (W) 12:28:06 435.910
BUGSAT 1 09 Dec 12:18:59 12:23:12 80° 258° (WSW) 12:27:29 437.445
AISAT 09 Dec 12:56:46 13:01:09 56° 286° (WNW) 13:05:30 437.250
RS-15 09 Dec 13:01:54 13:08:41 16° 14° (NNE) 13:15:26 29.354- 29.394
ESTCUBE 1 09 Dec 13:07:11 13:10:20 19° 292° (WNW) 13:13:30 437.505/2401.250
BEESAT 3 09 Dec 13:11:06 13:14:47 35° 56° (NE) 13:18:26 437.485
Cosmos 2499 09 Dec 13:11:26 13:18:44 35° 275° (W) 13:25:35 435.465 / 435.565
TISAT 1 09 Dec 13:12:17 13:15:12 18° 94° (E) 13:18:05 437.305
CUBEBUG 1 09 Dec 13:13:26 13:17:04 25° 290° (WNW) 13:20:40 437.445
SRMSAT 09 Dec 13:20:23 13:23:57 16° 174° (S) 13:27:30 437.500
50 SAT 09 Dec 13:21:45 13:24:44 25° 288° (WNW) 13:27:43 437.505
JUGNU 09 Dec 13:23:03 13:26:20 15° 189° (S) 13:29:35 437.505
Oscar 19 09 Dec 13:23:09 13:28:16 80° 258° (WSW) 13:33:26 437.125/150
UKube-1 09 Dec 13:33:44 13:38:00 59° 286° (WNW) 13:42:15 .
VELOX 1 09 Dec 13:34:07 13:37:38 23° 291° (WNW) 13:41:08 145.980
DX 1 09 Dec 13:34:14 13:38:23 42° 287° (WNW) 13:42:31 434.975-435.025
SPROUT 09 Dec 13:38:58 13:42:37 28° 289° (WNW) 13:46:15 437.525
AO-7 09 Dec 13:39:38 13:45:16 21° 56° (NE) 13:50:55 29.400- 29.500
BEESAT 2 09 Dec 13:48:16 13:52:05 40° 57° (ENE) 13:55:53 435.950
Gurwin Techsat 1B 09 Dec 13:49:15 13:54:34 90° 258° (WSW) 13:59:55 435.225
ITAMSAT 1 09 Dec 14:00:53 14:05:05 25° 67° (ENE) 14:09:16 435.822/435.867
ISS 09 Dec 14:07:33 14:10:07 21° 130° (SE) 14:12:41 145.825
GONETS M04 09 Dec 14:15:34 14:20:00 15° 282° (WNW) 14:24:27
TISAT 1 09 Dec 14:47:09 14:50:50 30° 289° (WNW) 14:54:30 437.305
BEESAT 3 09 Dec 14:49:38 14:52:05 16° 251° (WSW) 14:54:32 437.485
SWISSCUBE 09 Dec 14:53:16 14:57:55 53° 101° (E) 15:02:33 437.505
BEESAT 09 Dec 14:56:54 15:01:32 51° 100° (E) 15:06:10 436.000
AUBIESAT-1 09 Dec 15:08:28 15:12:49 48° 103° (ESE) 15:16:56 437.475
SRMSAT 09 Dec 15:08:46 15:12:22 17° 185° (S) 15:15:58 437.500
RS-15 09 Dec 15:14:51 15:26:16 40° 46° (NE) 15:37:17 29.354- 29.394
M-CUBED/EXP-1 PRIME 09 Dec 15:23:54 15:28:32 88° 287° (WNW) 15:32:54 437.505
ITUPSAT 1 09 Dec 15:27:06 15:31:52 75° 285° (WNW) 15:36:36 437.325
BEESAT 2 09 Dec 15:27:21 15:29:30 14° 251° (WSW) 15:31:39 435.950
AO-7 09 Dec 15:28:45 15:37:03 82° 253° (WSW) 15:45:26 29.400- 29.500
MOZHAYETS 4 09 Dec 15:29:21 15:33:11 26° 96° (E) 15:36:59
KKS-1 09 Dec 15:34:40 15:35:00 10° 91° (E) 15:35:21 437.445
ITAMSAT 1 09 Dec 15:39:38 15:44:20 34° 262° (W) 15:49:04 435.822/435.867
O/OREOS (USA 219) 09 Dec 15:40:03 15:44:37 85° 290° (WNW) 15:49:11 437.305
ISS 09 Dec 15:43:32 15:46:29 30° 325° (NW) 15:49:26 145.825
Cosmos 2491 09 Dec 16:23:42 16:27:11 13° 63° (ENE) 16:30:39 435.465 / 435.565
SWISSCUBE 09 Dec 16:32:44 16:35:13 14° 295° (WNW) 16:37:41 437.505
BEESAT 09 Dec 16:36:16 16:38:51 15° 295° (WNW) 16:41:25 436.000
BRITE-PL 09 Dec 16:42:54 16:47:03 48° 74° (ENE) 16:51:32 437.365/2234.400
AUBIESAT-1 09 Dec 16:44:08 16:46:43 15° 300° (WNW) 16:49:15 437.475
AIST 2 09 Dec 16:49:22 16:53:36 89° 53° (NE) 16:57:49 435.215
SRMSAT 09 Dec 16:59:33 17:00:45 11° 194° (SSW) 17:01:56 437.500
STARS 09 Dec 17:02:30 17:06:48 50° 100° (E) 17:11:03 437.465
MOZHAYETS 4 09 Dec 17:06:31 17:10:12 25° 290° (WNW) 17:13:54
KKS-1 09 Dec 17:07:29 17:11:54 60° 286° (WNW) 17:16:17 437.445
HORYU 2 09 Dec 17:16:10 17:20:38 85° 255° (WSW) 17:25:08 437.375
CUBESAT XI-V 09 Dec 17:18:58 17:23:36 59° 100° (E) 17:28:13 437.345
DOVE 4 09 Dec 17:27:11 17:31:08 25° 68° (ENE) 17:35:16 437.250
RS-15 09 Dec 17:27:21 17:39:23 63° 248° (WSW) 17:50:57 29.354- 29.394
AO-7 09 Dec 17:27:23 17:30:48 13° 269° (W) 17:34:15 29.400- 29.500
GOMX 1 09 Dec 17:36:04 17:40:39 76° 75° (ENE) 17:45:36 467.674
HO-68 09 Dec 17:38:12 17:40:26 12° 54° (NE) 17:42:40 435.675
LilacSat-2 09 Dec 17:38:58 17:42:34 40° 74° (ENE) 17:46:10 437.200
CUTE-I 09 Dec 17:41:23 17:46:31 48° 72° (ENE) 17:51:40 437.470
NOAA 15 09 Dec 17:51:07 17:56:18 67° 74° (ENE) 18:01:31 137.62
Cubesat XI-IV 09 Dec 18:08:23 18:13:45 87° 75° (ENE) 18:19:10 437.490
Cosmos 2491 09 Dec 18:16:44 18:25:29 77° 83° (E) 18:34:12 435.465 / 435.565
CINEMA 3 09 Dec 18:16:59 18:20:41 21° 68° (ENE) 18:24:24 145.822/145.860
NOAA 18 09 Dec 18:23:47 18:29:19 78° 74° (ENE) 18:34:53 137.9125
BRITE-PL 09 Dec 18:24:15 18:25:57 12° 270° (W) 18:27:40 437.365/2234.400
YUBILEINY 09 Dec 18:38:20 18:46:37 51° 90° (E) 18:54:58 435.215
STARS 09 Dec 18:40:40 18:42:40 13° 295° (WNW) 18:44:40 437.465
CUTE 1.7 + AOD 2 09 Dec 18:52:13 18:55:37 25° 71° (ENE) 18:59:02 437.475
CUBESAT XI-V 09 Dec 18:58:28 19:00:26 13° 295° (WNW) 19:02:24 437.345
PCSat 09 Dec 19:00:34 19:03:19 14° 47° (NE) 19:06:04 145.827
DOVE 4 09 Dec 19:04:21 19:08:37 31° 265° (W) 19:13:07 437.250
Cosmos 2504 09 Dec 19:09:52 19:17:27 40° 86° (E) 19:25:24 435.465 / 435.565
CANX-2 09 Dec 19:10:21 19:14:24 48° 74° (ENE) 19:18:27 2200.000
LilacSat-2 09 Dec 19:15:53 19:17:00 11° 268° (W) 19:18:09 437.200
STRAND 1 09 Dec 19:18:12 19:22:47 33° 98° (E) 19:27:20 437.568
HO-68 09 Dec 19:19:46 19:26:53 72° 72° (ENE) 19:34:02 435.675
CUTE-I 09 Dec 19:23:09 19:26:46 18° 266° (W) 19:30:23 437.470
SO-50 09 Dec 19:26:12 19:31:00 88° 303° (WNW) 19:35:45 436.795
SEEDS 09 Dec 19:27:22 19:31:17 42° 74° (ENE) 19:35:13 437.485
COMPASS 1 09 Dec 19:30:21 19:33:56 29° 72° (ENE) 19:37:31 437.405
NOAA 15 09 Dec 19:34:29 19:36:29 12° 268° (W) 19:38:29 137.62
CUBEBUG 2 09 Dec 19:43:32 19:47:59 41° 73° (ENE) 19:52:24 437.445
Oscar 11 09 Dec 19:46:20 19:48:26 13° 66° (ENE) 19:50:32 145.826/435.025
CINEMA 3 09 Dec 19:52:53 19:57:29 38° 263° (W) 20:02:10 145.822/145.860
AIST 1 09 Dec 19:55:55 20:00:12 69° 278° (W) 20:04:33
NOAA 18 09 Dec 20:08:56 20:10:29 11° 269° (W) 20:12:03 137.9125
Cosmos 2491 09 Dec 20:15:49 20:21:15 18° 280° (W) 20:26:41 435.465 / 435.565
UWE-3 09 Dec 20:17:12 20:21:47 62° 75° (ENE) 20:26:20 435.000/436.395/437.385
CUTE 1.7 + AOD 2 09 Dec 20:28:04 20:31:22 22° 265° (W) 20:34:40 437.475
CUSAT 1 09 Dec 20:28:38 20:32:54 90° 141° (SE) 20:38:34 437.405
AAUSAT CUBESAT 2 09 Dec 20:30:43 20:34:47 63° 260° (W) 20:38:50 437.432
YUBILEINY 09 Dec 20:36:14 20:43:39 31° 287° (WNW) 20:51:09 435.215
ISS 09 Dec 20:38:27 20:39:47 12° 25° (NNE) 20:41:05 145.825
PCSat 09 Dec 20:41:56 20:47:23 83° 245° (WSW) 20:52:47 145.827
ZACube-1 09 Dec 20:48:59 20:53:33 86° 73° (ENE) 20:58:02 437.345
CANX-2 09 Dec 20:49:11 20:50:29 11° 268° (W) 20:51:47 2200.000
DELFI C3 09 Dec 20:54:02 20:57:17 25° 71° (ENE) 21:00:32 145.870
FUNcube-1 09 Dec 20:54:17 20:58:49 90° 276° (W) 21:03:18 145.935
STRAND 1 09 Dec 20:57:40 21:01:46 25° 292° (WNW) 21:05:50 437.568
Cosmos 2504 09 Dec 21:02:55 21:10:41 40° 285° (WNW) 21:18:53 435.465 / 435.565
SEEDS 09 Dec 21:05:22 21:07:09 12° 268° (W) 21:08:56 437.485
COMPASS 1 09 Dec 21:06:40 21:09:28 18° 266° (W) 21:12:18 437.405
HO-68 09 Dec 21:10:32 21:15:07 18° 267° (W) 21:19:43 435.675
SO-50 09 Dec 21:10:39 21:12:07 11° 316° (NW) 21:13:35 436.795
Oscar 11 09 Dec 21:20:00 21:24:08 45° 261° (W) 21:28:17 145.826/435.025
CUBEBUG 2 09 Dec 21:21:38 21:24:42 17° 267° (W) 21:27:46 437.445
PRISM 09 Dec 21:32:58 21:37:04 57° 101° (E) 21:41:10 437.425
HUMSAT D 09 Dec 21:40:38 21:44:42 50° 75° (ENE) 21:48:44 437.325/437.525
UNISAT 6 09 Dec 21:46:48 21:49:29 16° 93° (E) 21:52:07 437.425
DANDE 09 Dec 21:56:11 21:59:07 30° 263° (W) 22:02:45 436.750
UWE-3 09 Dec 21:57:34 21:58:32 11° 269° (W) 21:59:30 435.000/436.395/437.385
PHONESAT 2.4 09 Dec 22:12:23 22:14:48 31° 150° (SSE) 22:17:12 2401.200-2431.200
ISS 09 Dec 22:13:26 22:16:45 77° 42° (NE) 22:20:03 145.825
TIGRISAT 09 Dec 22:14:28 22:18:20 31° 97° (E) 22:22:08 435.000
ANTELSAT 09 Dec 22:16:57 22:20:57 36° 98° (E) 22:24:53 437.575/2403.000
ESTCUBE 1 09 Dec 22:26:40 22:30:09 23° 69° (ENE) 22:33:38 437.505/2401.250
DELFI C3 09 Dec 22:29:17 22:32:03 18° 265° (W) 22:34:49 145.870
CUBEBUG 1 09 Dec 22:31:19 22:33:45 15° 66° (ENE) 22:36:13 437.445
VELOX 1 09 Dec 22:52:35 22:55:29 17° 67° (ENE) 22:58:24 145.980
SPROUT 09 Dec 22:55:52 22:57:14 11° 65° (ENE) 22:58:36 437.525
NANOSAT C BR1 09 Dec 23:07:00 23:08:07 11° 92° (E) 23:09:14 145.865
PRISM 09 Dec 23:11:02 23:11:50 10° 295° (WNW) 23:12:37 437.425
QB50P2 09 Dec 23:15:32 23:18:20 17° 94° (E) 23:21:07 145.880/145.840
POLYITAN 1 09 Dec 23:16:05 23:18:43 16° 94° (E) 23:21:21 437.675
HUMSAT D 09 Dec 23:19:35 23:20:32 11° 268° (W) 23:21:28 437.325/437.525
GONETS M04 09 Dec 23:19:36 23:25:22 20° 81° (E) 23:31:06
UNISAT 6 09 Dec 23:22:20 23:26:18 35° 288° (WNW) 23:30:11 437.425
DUCHIFAT 1 09 Dec 23:25:25 23:28:15 17° 94° (E) 23:31:03 145.980
QB50P1 09 Dec 23:27:09 23:30:27 22° 95° (E) 23:33:43 145.935-145.965
JAS-2 09 Dec 23:28:34 23:33:34 41° 100° (E) 23:38:54 435.910
PHONESAT 2.4 09 Dec 23:47:23 23:49:55 41° 345° (NNW) 23:52:28 2401.200-2431.200
POPSAT HIP 1 09 Dec 23:48:35 23:52:33 39° 99° (E) 23:56:28 437.405
Cosmos 2499 09 Dec 23:49:27 23:57:09 38° 86° (E) 00:05:06 435.465 / 435.565
AISAT 09 Dec 23:50:30 23:54:55 86° 77° (ENE) 23:59:23 437.250
TIGRISAT 09 Dec 23:51:46 23:54:46 19° 292° (WNW) 23:57:43 435.000
50 SAT 09 Dec 23:53:09 23:56:38 72° 77° (ENE) 00:00:08 437.505
ANTELSAT 09 Dec 23:54:37 23:57:20 16° 293° (WNW) 00:00:00 437.575/2403.000
ESTCUBE 1 10 Dec 00:02:57 00:06:46 28° 263° (W) 00:10:38 437.505/2401.250
BUGSAT 1 10 Dec 00:04:54 00:07:45 18° 94° (E) 00:10:33 437.445
CUBEBUG 1 10 Dec 00:05:30 00:09:38 43° 261° (W) 00:13:49 437.445
UKube-1 10 Dec 00:24:43 00:28:59 76° 77° (ENE) 00:33:20 .
DX 1 10 Dec 00:26:06 00:30:26 75° 257° (WSW) 00:34:48 434.975-435.025
VELOX 1 10 Dec 00:27:33 00:31:37 37° 262° (W) 00:35:44 145.980
SPROUT 10 Dec 00:28:25 00:32:37 55° 260° (W) 00:36:52 437.525
NANOSAT C BR1 10 Dec 00:40:01 00:44:05 49° 286° (WNW) 00:48:07 145.865
QB50P2 10 Dec 00:50:24 00:54:10 32° 288° (WNW) 00:57:55 145.880/145.840
POLYITAN 1 10 Dec 00:50:47 00:54:35 34° 288° (WNW) 00:58:22 437.675
DUCHIFAT 1 10 Dec 01:00:14 01:03:57 31° 288° (WNW) 01:07:38 145.980
QB50P1 10 Dec 01:02:39 01:06:08 25° 290° (WNW) 01:09:35 145.935-145.965
AO-85 10 Dec 01:09:21 01:14:22 78° 117° (ESE) 01:19:02 145.980
GONETS M04 10 Dec 01:12:30 01:21:11 73° 278° (W) 01:29:53
JAS-2 10 Dec 01:14:34 01:18:26 21° 292° (WNW) 01:22:28 435.910
PHONESAT 2.4 10 Dec 01:23:09 01:25:26 25° 1° (N) 01:27:42 2401.200-2431.200
POPSAT HIP 1 10 Dec 01:25:34 01:27:57 15° 293° (WNW) 01:30:20 437.405
TISAT 1 10 Dec 01:34:46 01:38:57 63° 259° (WSW) 01:43:11 437.305
Oscar 19 10 Dec 01:37:51 01:42:51 46° 100° (E) 01:47:50 437.125/150
BUGSAT 1 10 Dec 01:39:30 01:43:07 29° 289° (WNW) 01:46:41 437.445
Cosmos 2499 10 Dec 01:42:02 01:50:04 43° 284° (WNW) 01:58:25 435.465 / 435.565
AUBIESAT-1 10 Dec 01:50:48 01:54:37 35° 67° (ENE) 01:58:41 437.475
O/OREOS (USA 219) 10 Dec 01:53:11 01:57:39 74° 251° (WSW) 02:02:05 437.305
SWISSCUBE 10 Dec 01:56:37 02:01:06 43° 72° (ENE) 02:05:37 437.505
BEESAT 10 Dec 02:00:12 02:04:40 42° 72° (ENE) 02:09:10 436.000
M-CUBED/EXP-1 PRIME 10 Dec 02:06:28 02:10:34 68° 71° (ENE) 02:15:02 437.505
Gurwin Techsat 1B 10 Dec 02:08:43 02:13:50 46° 99° (E) 02:18:54 435.225
ITAMSAT 1 10 Dec 02:19:51 02:20:10 10° 91° (E) 02:20:29 435.822/435.867
MOZHAYETS 4 10 Dec 02:28:53 02:32:01 19° 68° (ENE) 02:35:10
ITUPSAT 1 10 Dec 02:30:29 02:35:16 88° 77° (ENE) 02:40:04 437.325
AO-85 10 Dec 02:53:03 02:55:12 13° 313° (NW) 02:57:19 145.980
PHONESAT 2.4 10 Dec 02:58:18 03:00:54 53° 18° (NNE) 03:03:29 2401.200-2431.200
BEESAT 3 10 Dec 03:00:37 03:02:01 12° 108° (ESE) 03:03:24 437.485
GONETS M04 10 Dec 03:16:52 03:19:34 12° 298° (WNW) 03:22:17
Oscar 19 10 Dec 03:18:12 03:21:46 19° 294° (WNW) 03:25:20 437.125/150
AUBIESAT-1 10 Dec 03:26:15 03:29:06 18° 262° (W) 03:32:06 437.475
AO-7 10 Dec 03:34:07 03:41:56 41° 100° (E) 03:49:41 29.400- 29.500
SWISSCUBE 10 Dec 03:36:05 03:39:03 16° 266° (W) 03:42:01 437.505
BEESAT 2 10 Dec 03:38:32 03:40:40 14° 109° (ESE) 03:42:48 435.950
BEESAT 10 Dec 03:39:32 03:42:35 17° 266° (W) 03:45:39 436.000
Gurwin Techsat 1B 10 Dec 03:49:40 03:53:24 20° 294° (WNW) 03:57:06 435.225
ITAMSAT 1 10 Dec 03:54:56 04:00:07 76° 285° (WNW) 04:05:16 435.822/435.867
STARS 10 Dec 03:56:08 04:00:01 31° 71° (ENE) 04:03:55 437.465
SO-50 10 Dec 04:00:52 04:05:00 34° 54° (NE) 04:09:03 436.795
KKS-1 10 Dec 04:01:59 04:06:26 84° 78° (ENE) 04:10:57 437.445
MOZHAYETS 4 10 Dec 04:04:39 04:08:52 36° 262° (W) 04:13:06
CUBESAT XI-V 10 Dec 04:19:15 04:23:29 39° 73° (ENE) 04:27:46 437.345
PHONESAT 2.4 10 Dec 04:33:50 04:35:54 21° 212° (SSW) 04:37:59 2401.200-2431.200
BEESAT 3 10 Dec 04:35:26 04:39:11 44° 303° (WNW) 04:42:58 437.485
BRITE-PL 10 Dec 04:50:09 04:54:46 26° 95° (E) 04:59:24 437.365/2234.400
YUBILEINY 10 Dec 04:53:17 04:59:37 21° 68° (ENE) 05:05:54 435.215
Cosmos 2504 10 Dec 05:10:33 05:12:23 11° 60° (ENE) 05:14:13 435.465 / 435.565
HORYU 2 10 Dec 05:10:47 05:14:15 22° 96° (E) 05:17:41 437.375
BEESAT 2 10 Dec 05:14:24 05:18:05 38° 304° (WNW) 05:21:49 435.950
Cosmos 2491 10 Dec 05:21:43 05:26:40 17° 79° (E) 05:31:35 435.465 / 435.565
AO-7 10 Dec 05:26:56 05:34:33 41° 297° (WNW) 05:42:10 29.400- 29.500
STARS 10 Dec 05:33:05 05:36:21 20° 265° (W) 05:39:39 437.465
RS-15 10 Dec 05:35:50 05:45:10 29° 102° (ESE) 05:54:48 29.354- 29.394
GOMX 1 10 Dec 05:40:54 05:45:50 33° 96° (E) 05:50:38 467.674
SO-50 10 Dec 05:41:52 05:45:12 21° 250° (WSW) 05:48:30 436.795
CUBESAT XI-V 10 Dec 05:58:05 06:01:00 17° 267° (W) 06:03:55 437.345
CUTE-I 10 Dec 06:02:06 06:06:23 24° 96° (E) 06:10:38 437.470
AIST 1 10 Dec 06:06:44 06:10:05 21° 75° (ENE) 06:13:25
NOAA 15 10 Dec 06:09:39 06:14:21 32° 98° (E) 06:19:02 137.62
BRITE-PL 10 Dec 06:28:04 06:33:12 39° 288° (WNW) 06:38:26 437.365/2234.400
Cubesat XI-IV 10 Dec 06:28:57 06:34:02 44° 99° (E) 06:39:05 437.490
STRAND 1 10 Dec 06:31:03 06:35:41 35° 70° (ENE) 06:40:19 437.568
AIST 2 10 Dec 06:43:57 06:47:43 37° 114° (ESE) 06:51:33 435.215
HORYU 2 10 Dec 06:47:00 06:50:44 27° 290° (WNW) 06:54:27 437.375
YUBILEINY 10 Dec 06:48:23 06:57:11 74° 267° (W) 07:05:58 435.215
LilacSat-2 10 Dec 06:49:04 06:52:50 83° 285° (WNW) 06:56:36 437.200
NOAA 18 10 Dec 06:49:14 06:54:28 42° 99° (E) 06:59:38 137.9125
HO-68 10 Dec 06:53:21 06:57:07 15° 91° (E) 07:00:51 435.675
Cosmos 2504 10 Dec 06:58:56 07:07:36 68° 81° (E) 07:15:38 435.465 / 435.565
CANX-2 10 Dec 07:01:11 07:01:50 10° 91° (E) 07:02:29 2200.000
DOVE 4 10 Dec 07:05:39 07:10:55 86° 283° (WNW) 07:15:56 437.250
Cosmos 2491 10 Dec 07:13:29 07:22:18 84° 276° (W) 07:31:05 435.465 / 435.565
GOMX 1 10 Dec 07:19:03 07:23:43 29° 291° (WNW) 07:28:19 467.674
CUTE-I 10 Dec 07:41:38 07:46:26 36° 290° (WNW) 07:51:13 437.470
AIST 1 10 Dec 07:43:56 07:47:37 26° 270° (W) 07:51:16
RS-15 10 Dec 07:44:48 07:56:28 72° 302° (WNW) 08:08:47 29.354- 29.394
NOAA 15 10 Dec 07:49:34 07:53:58 27° 292° (WNW) 07:58:22 137.62
CINEMA 3 10 Dec 07:50:42 07:55:23 68° 101° (E) 07:59:48 145.822/145.860
Cubesat XI-IV 10 Dec 08:09:55 08:13:44 20° 294° (WNW) 08:17:33 437.490
STRAND 1 10 Dec 08:10:51 08:14:52 23° 265° (W) 08:18:54 437.568
UWE-3 10 Dec 08:11:38 08:13:56 14° 92° (E) 08:16:13 435.000/436.395/437.385
CUTE 1.7 + AOD 2 10 Dec 08:14:43 08:18:56 76° 101° (E) 08:23:10 437.475
AAUSAT CUBESAT 2 10 Dec 08:16:16 08:19:39 24° 96° (E) 08:23:01 437.432
PRISM 10 Dec 08:19:38 08:23:01 26° 70° (ENE) 08:26:26 437.425
AIST 2 10 Dec 08:23:29 08:26:19 18° 310° (NW) 08:29:12 435.215
NOAA 18 10 Dec 08:30:35 08:34:47 23° 295° (WNW) 08:38:58 137.9125
CANX-2 10 Dec 08:33:50 08:37:57 52° 285° (WNW) 08:42:04 2200.000
HO-68 10 Dec 08:38:15 08:45:30 83° 287° (WNW) 08:52:42 435.675
ZACube-1 10 Dec 08:41:28 08:44:27 19° 94° (E) 08:47:26 437.345
UNISAT 6 10 Dec 08:43:51 08:45:31 12° 65° (ENE) 08:47:10 437.425
FUNcube-1 10 Dec 08:46:20 08:49:24 20° 95° (E) 08:52:26 145.935
SEEDS 10 Dec 08:49:21 08:53:30 61° 284° (WNW) 08:57:38 437.485
YUBILEINY 10 Dec 08:50:35 08:52:19 11° 284° (WNW) 08:54:04 435.215
COMPASS 1 10 Dec 08:50:41 08:54:52 88° 102° (ESE) 08:59:02 437.405
Cosmos 2504 10 Dec 08:53:59 08:59:59 22° 280° (W) 09:05:46 435.465 / 435.565
Oscar 11 10 Dec 09:10:06 09:14:07 38° 98° (E) 09:18:08 145.826/435.025
TIGRISAT 10 Dec 09:10:13 09:13:46 22° 69° (ENE) 09:17:17 435.000
ANTELSAT 10 Dec 09:12:42 09:16:28 24° 70° (ENE) 09:20:11 437.575/2403.000
CUBEBUG 2 10 Dec 09:13:59 09:18:12 56° 285° (WNW) 09:22:18 437.445
Cosmos 2491 10 Dec 09:16:02 09:20:25 14° 296° (WNW) 09:24:49 435.465 / 435.565
DANDE 10 Dec 09:20:33 09:23:41 19° 97° (E) 09:26:19 436.750
CUSAT 1 10 Dec 09:30:24 09:33:22 49° 279° (W) 09:35:58 437.405
CINEMA 3 10 Dec 09:30:53 09:31:48 11° 297° (WNW) 09:32:41 145.822/145.860
JUGNU 10 Dec 09:31:44 09:34:38 14° 169° (S) 09:37:32 437.505
PCSat 10 Dec 09:38:56 09:42:43 20° 105° (ESE) 09:46:31 145.827
JAS-2 10 Dec 09:40:54 09:43:34 13° 64° (ENE) 09:46:09 435.910
AO-85 10 Dec 09:44:40 09:47:53 23° 53° (NE) 09:51:01 145.980
